Weather History for KTDZ - March, 2014

Change the Weather History Date:

Wednesday, March 12, 2014

  Actual Average (KTOL) Record (KTOL)
Temperature  
Mean Temperature 26 °F 36 °F  
Max Temperature 39 °F 45 °F 76 °F (1990)
Min Temperature 10 °F 27 °F -10 °F (1948)
Degree Days  
Heating Degree Days 38 29  
Month to date heating degree days 372  
Since 1 July heating degree days 4948  
Cooling Degree Days 0 0  
Month to date cooling degree days 0  
Year to date cooling degree days 0  
Moisture  
Dew Point 21 °F    
Average Humidity 79    
Maximum Humidity 92    
Minimum Humidity 56    
Precipitation  
Precipitation 0.35 in 0.07 in 1.32 in (2012)
Month to date precipitation 0.90  
Year to date precipitation 5.02  
Snow  
Snow 0.00 in 0.30 in - ()
Month to date snowfall 2.9  
Since 1 July snowfall 33.4  
Snow Depth -    
Sea Level Pressure  
Sea Level Pressure 29.68 in    
Wind  
Wind Speed 17 mph (North)    
Max Wind Speed 28 mph    
Max Gust Speed 44 mph    
Visibility 3 miles    
Events Fog , Snow    
T = Trace of Precipitation, MM = Missing Value Source: NWS Daily Summary

Daily Weather History Graph

Daily Weather History Graph

Search for Another Location

Airport or City:

Trip Planner

Search our weather history database for the weather conditions in past years. The results will help you decide how hot, cold, wet, or windy it might be!

Date:

Astronomy

Mar. 12, 2014 Rise Set
Actual Time 7:50 AM EDT 7:37 PM EDT
Civil Twilight 7:23 AM EDT 8:04 PM EDT
Nautical Twilight 6:50 AM EDT 8:37 PM EDT
Astronomical Twilight 6:18 AM EDT 9:09 PM EDT
Moon 4:04 PM EDT (3/12) 5:24 AM EDT (3/12)
Length of Visible Light 12h 41m
Length of Day
11h 46m
Waxing Gibbous, 85% of the Moon is Illuminated
Mar 12
Waxing Gibbous
Mar 16
Full
Mar 23
Last Quarter
Mar 30
New
Apr 7
First Quarter

Hourly Weather History & Observations

Time (EDT) Temp. Windchill Dew Point Humidity Pressure Visibility Wind Dir Wind Speed Gust Speed Precip Events Conditions
12:53 AM 39.0 °F 32.8 °F 35.1 °F 86% 29.69 in 10.0 mi NE 9.2 mph - N/A   Clear
1:53 AM 37.9 °F 30.9 °F 34.0 °F 86% 29.66 in 5.0 mi ENE 10.4 mph - N/A   Overcast
2:04 AM 37.0 °F 29.3 °F 34.0 °F 89% 29.64 in 5.0 mi NE 11.5 mph - N/A   Overcast
2:53 AM 35.1 °F 26.4 °F 30.9 °F 85% 29.64 in 6.0 mi NE 12.7 mph 20.7 mph N/A   Overcast
3:53 AM 33.1 °F 23.0 °F 28.9 °F 85% 29.62 in 10.0 mi NE 15.0 mph 25.3 mph N/A   Overcast
4:04 AM 33.1 °F 23.9 °F 28.0 °F 82% 29.59 in 10.0 mi NE 12.7 mph 24.2 mph N/A   Overcast
4:53 AM 33.1 °F 23.0 °F 26.1 °F 75% 29.57 in 10.0 mi NNE 15.0 mph 26.5 mph N/A   Overcast
5:53 AM 32.0 °F 20.1 °F 26.1 °F 79% 29.55 in 3.0 mi NE 19.6 mph 34.5 mph 0.01 in Snow Light Snow
5:56 AM 32.0 °F 20.1 °F 26.1 °F 79% 29.54 in 1.8 mi NE 19.6 mph 34.5 mph 0.00 in Snow Light Snow
6:05 AM 32.0 °F 20.8 °F 27.0 °F 82% 29.53 in 0.8 mi NNE 17.3 mph 25.3 mph 0.01 in Snow Light Snow
6:12 AM 32.0 °F 20.5 °F 27.0 °F 82% 29.53 in 0.8 mi NNE 18.4 mph 32.2 mph 0.01 in Snow Light Snow
6:41 AM 30.9 °F 18.7 °F 28.0 °F 89% 29.52 in 0.5 mi NNE 19.6 mph 31.1 mph 0.04 in Fog , Snow Snow
6:53 AM 30.9 °F 17.2 °F 28.0 °F 89% 29.54 in 0.5 mi NNE 25.3 mph 36.8 mph 0.05 in Fog , Snow Snow
7:53 AM 30.0 °F 17.5 °F 28.0 °F 92% 29.53 in 0.2 mi North 19.6 mph 27.6 mph 0.07 in Fog , Snow Heavy Snow
8:07 AM 30.0 °F 17.9 °F 28.0 °F 92% 29.51 in 0.2 mi North 18.4 mph 28.8 mph 0.02 in Fog , Snow Heavy Snow
8:23 AM 30.0 °F 16.6 °F 28.0 °F 92% 29.50 in 0.2 mi North 23.0 mph 33.4 mph 0.04 in Fog , Snow Heavy Snow
8:32 AM 30.0 °F 17.9 °F 28.0 °F 92% 29.50 in 0.2 mi North 18.4 mph 36.8 mph 0.05 in Fog , Snow Heavy Snow
8:53 AM 30.9 °F 18.1 °F 28.0 °F 89% 29.53 in 0.2 mi North 21.9 mph 38.0 mph 0.08 in Fog , Snow Heavy Snow
9:07 AM 30.9 °F 18.1 °F 28.0 °F 89% 29.53 in 0.2 mi North 21.9 mph 29.9 mph 0.01 in Fog , Snow Heavy Snow
9:53 AM 30.9 °F 18.7 °F 28.9 °F 92% 29.53 in 0.2 mi North 19.6 mph 29.9 mph 0.06 in Fog Light Freezing Fog
10:53 AM 30.9 °F 18.1 °F 28.9 °F 92% 29.51 in 0.2 mi NNE 21.9 mph 29.9 mph 0.03 in Fog Light Freezing Fog
11:53 AM 30.0 °F 16.9 °F 28.0 °F 92% 29.55 in 0.2 mi North 21.9 mph 35.7 mph 0.01 in Fog Light Freezing Fog
12:03 PM 30.0 °F 16.6 °F 27.0 °F 88% 29.54 in 0.5 mi North 23.0 mph 33.4 mph 0.01 in Fog , Snow Snow
12:28 PM 30.0 °F 16.9 °F 27.0 °F 88% 29.56 in 0.2 mi North 21.9 mph 32.2 mph 0.02 in Fog , Snow Heavy Snow
12:37 PM 30.0 °F 17.2 °F 27.0 °F 88% 29.56 in 0.2 mi North 20.7 mph 34.5 mph 0.02 in Fog Light Freezing Fog
12:53 PM 28.9 °F 14.0 °F 26.1 °F 89% 29.60 in 0.2 mi North 27.6 mph 43.7 mph 0.02 in Fog Light Freezing Fog
1:53 PM 28.0 °F 14.9 °F 24.1 °F 85% 29.64 in 0.5 mi North 19.6 mph 31.1 mph 0.02 in Fog Light Freezing Fog
2:19 PM 26.1 °F 11.0 °F 21.0 °F 81% 29.65 in 0.2 mi North 24.2 mph 40.3 mph N/A   Haze
2:53 PM 25.0 °F 9.9 °F 19.9 °F 81% 29.69 in 1.0 mi NNW 23.0 mph 33.4 mph N/A   Haze
3:01 PM 24.1 °F 8.0 °F 18.0 °F 77% 29.68 in 0.5 mi NNW 25.3 mph 34.5 mph N/A   Haze
3:13 PM 24.1 °F 9.4 °F 18.0 °F 77% 29.69 in 1.0 mi North 20.7 mph 35.7 mph N/A   Haze
3:22 PM 24.1 °F 8.3 °F 18.0 °F 77% 29.69 in 1.2 mi NNW 24.2 mph 31.1 mph N/A   Haze
3:25 PM 24.1 °F 8.7 °F 18.0 °F 77% 29.70 in 0.8 mi NNW 23.0 mph 32.2 mph N/A   Haze
3:40 PM 24.1 °F 8.7 °F 18.0 °F 77% 29.71 in 1.0 mi NNW 23.0 mph 32.2 mph N/A   Haze
3:53 PM 24.1 °F 9.4 °F 18.0 °F 77% 29.74 in 1.5 mi NNW 20.7 mph 34.5 mph N/A   Haze
4:05 PM 23.0 °F 7.6 °F 17.1 °F 78% 29.74 in 0.8 mi NNW 21.9 mph 33.4 mph N/A   Haze
4:08 PM 23.0 °F 7.6 °F 17.1 °F 78% 29.74 in 1.0 mi NNW 21.9 mph 31.1 mph N/A   Haze
4:29 PM 23.0 °F 7.2 °F 16.0 °F 74% 29.76 in 1.0 mi NNW 23.0 mph 29.9 mph N/A   Haze
4:36 PM 23.0 °F 8.3 °F 15.1 °F 72% 29.77 in 1.5 mi NNW 19.6 mph 29.9 mph N/A   Haze
4:46 PM 23.0 °F 8.7 °F 15.1 °F 72% 29.78 in 2.5 mi North 18.4 mph 28.8 mph N/A   Haze
4:53 PM 23.0 °F 8.7 °F 15.1 °F 72% 29.81 in 4.0 mi North 18.4 mph 27.6 mph N/A   Haze
5:19 PM 23.0 °F 6.9 °F 12.9 °F 65% 29.81 in 1.8 mi NNW 24.2 mph 34.5 mph N/A   Haze
5:31 PM 21.9 °F 6.9 °F 12.0 °F 66% 29.82 in 3.0 mi North 19.6 mph 33.4 mph N/A   Haze
5:53 PM 23.0 °F 8.7 °F 10.9 °F 60% 29.86 in 6.0 mi North 18.4 mph 26.5 mph 0.00 in Snow Light Snow
6:29 PM 21.9 °F 8.2 °F 10.9 °F 63% 29.87 in 9.0 mi NNW 16.1 mph 23.0 mph 0.00 in Snow Light Snow
6:53 PM 21.0 °F 7.6 °F 10.0 °F 63% 29.91 in 9.0 mi NNW 15.0 mph 25.3 mph 0.00 in Snow Light Snow
7:19 PM 19.9 °F 7.3 °F 10.0 °F 65% 29.90 in 9.0 mi NNW 12.7 mph - 0.00 in Snow Light Snow
7:53 PM 19.0 °F 5.0 °F 8.1 °F 62% 29.95 in 9.0 mi NNW 15.0 mph - 0.00 in Snow Light Snow
8:53 PM 16.0 °F 4.4 °F 3.0 °F 57% 29.99 in 9.0 mi NNW 9.2 mph - 0.00 in Snow Light Snow
9:53 PM 15.1 °F 2.5 °F 3.0 °F 59% 30.02 in 9.0 mi North 10.4 mph - 0.00 in Snow Light Snow
10:53 PM 14.0 °F 2.0 °F 1.0 °F 56% 30.04 in 9.0 mi NNE 9.2 mph - 0.00 in Snow Light Snow
11:53 PM 10.0 °F 1.8 °F -0.0 °F 64% 30.05 in 9.0 mi North 4.6 mph - 0.00 in Snow Light Snow